www.pogodaiklimat.ru

Погода и климат >> Архив погоды >> Иран >> Бендер-Аббас


ПОГОДА в Бендер-Аббасе

  • Прогноз погоды в Бендер-Аббасе
  • Монитор погоды в Бендер-Аббасе

АРХИВ ПОГОДЫ в Бендер-Аббасе

Время (UTC), дата Ветер
(напр.,м/с)
 
Видим.   Явления Облачность Т
(С)
Тd
(С)
f
(%)
Тe
(С)
Тes
(С)
Комфортность P
(гПа)
Po
(гПа)
Тmin
(С)
Tmax
(С)
R
(мм)
R24
(мм)
S
(см)
00 18.08 В 2 4000 м дымка ясно +30.3 +27.0 83 +48 +48 опасность
перегрева
999.1 998.0
03 18.08 В 2 5000 м мгла 1/1 750 м
[Sc]
+31.6 +27.5 79 +51 +52 опасность
перегрева
1000.8 999.7 +30.2
06 18.08 ЮВ 7 5000 м мгла 5/5 750 м
[Sc]
+34.2 +27.7 69 +54 +56 опасность
перегрева
1003.0 1001.9
09 18.08 ЮВ 6 5000 м мгла 3/3 750 м
[Cu hum]
+34.6 +27.0 65 +53 +58 опасность
перегрева
1002.8 1001.7
12 18.08 Ю 4 5000 м мгла 1/1 900 м
[Cu hum]
+35.0 +27.7 66 +55 +59 опасность
перегрева
1001.3 1000.2
15 18.08 В 4 5000 м мгла ясно +32.4 +27.4 75 +51 +51 опасность
перегрева
1001.2 1000.1 +35.3
18 18.08 В 4 5000 м дымка 3/3 750 м
[Cu hum]
+31.3 +27.5 80 +50 +50 опасность
перегрева
1003.1 1002.0
21 18.08 СВ 3 5000 м дымка ясно +30.3 +26.7 81 +47 +47 опасность
перегрева
1002.4 1001.4
00 19.08 С 2 5000 м дымка ясно +29.1 +26.2 84 +44 +44 опасность
перегрева
1002.2 1001.2
03 19.08 С 2 6000 м дымка 8/8 750 м
[Sc]
+29.4 +26.8 86 +46 +46 опасность
перегрева
1004.4 1003.3 +28.5
06 19.08 ЮВ 6 6000 м мгла 6/6 750 м
[Sc]
+33.6 +27.3 70 +53 +55 опасность
перегрева
1006.0 1004.9
09 19.08 Ю 5 7000 м мгла 1/1 900 м
[Cu hum]
+34.6 +26.0 61 +50 +60 опасность
перегрева
1005.2 1004.1
12 19.08 Ю 4 7000 м мгла ясно +34.2 +26.8 65 +51 +56 опасность
перегрева
1003.0 1001.9
15 19.08 В 5 7000 м мгла ясно +32.1 +27.0 75 +50 +50 опасность
перегрева
1002.9 1001.8 +35.5 666
18 19.08 В 4 6000 м дымка 1/1 900 м
[Cu hum]
+31.0 +27.3 81 +49 +49 опасность
перегрева
1004.9 1003.8
21 19.08 СВ 3 6000 м дымка 1/1 900 м
[Cu hum]
+30.3 +26.9 82 +47 +47 опасность
перегрева
1004.5 1003.4
00 20.08 СВ 2 6000 м дымка 3/3 900 м
[Sc diur, vesp]
+29.7 +26.2 82 +45 +45 опасность
перегрева
1004.3 1003.2
03 20.08 ЮВ 4 6000 м мгла 4/4 750 м
[Sc diur, vesp]
+30.7 +26.6 79 +47 +48 опасность
перегрева
1006.1 1005.0 +29.4 666
06 20.08 ЮВ 7 6000 м мгла 4/4 750 м
[Sc]
+33.3 +26.1 66 +49 +52 опасность
перегрева
1006.9 1005.8
09 20.08 ЮВ 4 6000 м мгла 5/5 750 м
[Sc]
+34.0 +26.6 65 +51 +58 опасность
перегрева
1005.9 1004.8
12 20.08 Ю 6 6000 м мгла 1/1 600 м
[Cu hum]
+33.8 +27.4 69 +53 +55 опасность
перегрева
1003.8 1002.7
15 20.08 Ю 5 6000 м мгла ясно +31.9 +27.4 77 +51 +51 опасность
перегрева
1003.5 1002.5 +35.1
18 20.08 В 4 6000 м дымка 1/1 900 м
[Sc]
+31.4 +27.4 79 +50 +50 опасность
перегрева
1004.6 1003.5
21 20.08 В 3 6000 м дымка 3/3 900 м
[Cu hum]
+30.9 +27.5 82 +50 +50 опасность
перегрева
1004.2 1003.1
00 21.08 СВ 3 6000 м дымка 1/1 750 м
[Sc]
+30.0 +26.5 82 +46 +46 опасность
перегрева
1003.9 1002.8
03 21.08 СВ 2 6000 м дымка 4/4 750 м
[Sc]
+30.0 +26.2 80 +45 +46 опасность
перегрева
1004.6 1003.5 +29.2
06 21.08 ЮВ 5 6000 м мгла 5/5 750 м
[Sc]
+33.9 +25.9 63 +49 +53 опасность
перегрева
1005.8 1004.7
09 21.08 ЮВ 6 7000 м мгла 4/4 750 м
[Sc]
+34.5 +26.7 64 +52 +57 опасность
перегрева
1004.7 1003.6
12 21.08 Ю 5 6000 м мгла ясно +34.4 +27.2 66 +53 +57 опасность
перегрева
1002.5 1001.4
15 21.08 Ю 4 6000 м мгла ясно +32.4 +27.5 75 +51 +51 опасность
перегрева
1002.1 1001.0 +35.0 666
18 21.08 Ю 3 6000 м мгла ясно +32.1 +27.3 76 +51 +51 опасность
перегрева
1003.0 1001.9
21 21.08 штиль 0 5000 м дымка ясно +30.5 +26.9 81 +48 +48 опасность
перегрева
1002.5 1001.4
00 22.08 штиль 0 5000 м мгла ясно +29.8 +26.0 80 +45 +45 опасность
перегрева
1002.8 1001.7
03 22.08 СВ 2 5000 м мгла ясно +30.2 +26.2 79 +46 +47 опасность
перегрева
1003.5 1002.4 +29.4 666
06 22.08 Ю 4 6000 м мгла 4/4 750 м
[Sc]
+34.2 +27.3 67 +53 +59 опасность
перегрева
1003.7 1002.6
09 22.08 Ю 6 6000 м мгла 4/4 750 м
[Sc]
+34.7 +28.2 69 +56 +61 опасность
перегрева
1002.9 1001.8 666
12 22.08 Ю 6 6000 м мгла 3/1 750 м
[Cu med, cong Ci fib]
+34.2 +28.3 71 +55 +58 опасность
перегрева
1001.7 1000.6
15 22.08 В 4 6000 м мгла 3/1 900 м
[Sc diur, vesp Ci fib]
+32.3 +27.7 77 +52 +52 опасность
перегрева
1001.4 1000.3 +35.2 666
18 22.08 В 3 6000 м дымка ясно +31.3 +27.6 81 +51 +51 опасность
перегрева
1002.6 1001.5
21 22.08 С 3 6000 м дымка ясно +30.1 +26.5 81 +46 +46 опасность
перегрева
1002.8 1001.7
00 23.08 С 2 6000 м дымка ясно +29.0 +26.2 85 +44 +44 опасность
перегрева
1002.8 1001.7
03 23.08 СЗ 2 6000 м дымка ясно +29.8 +27.0 85 +47 +48 опасность
перегрева
1003.9 1002.8 +28.5 666
06 23.08 Ю 4 6000 м мгла 4/4 750 м
[Sc diur, vesp]
+33.7 +27.6 71 +54 +59 опасность
перегрева
1004.6 1003.5
09 23.08 Ю 7 6000 м мгла 1/1 750 м
[Sc diur, vesp]
+34.9 +27.7 66 +54 +59 опасность
перегрева
1004.1 1003.0
12 23.08 Ю 4 6000 м мгла 1/1 750 м
[Sc diur, vesp]
+34.8 +28.8 71 +58 +62 опасность
перегрева
1002.2 1001.1
15 23.08 ЮВ 3 5000 м мгла 1/1 750 м
[Sc diur, vesp]
+33.1 +28.2 76 +55 +55 опасность
перегрева
1002.4 1001.3 +35.6
18 23.08 СВ 3 5000 м дымка ясно +31.6 +28.2 82 +52 +52 опасность
перегрева
1003.5 1002.4
21 23.08 СВ 3 4000 м дымка ясно +30.6 +26.9 81 +48 +48 опасность
перегрева
1003.3 1002.2
00 24.08 С 2 4000 м дымка ясно +29.6 +26.8 85 +46 +46 опасность
перегрева
1003.2 1002.1
03 24.08 С 2 4000 м дымка ясно +30.0 +27.5 86 +48 +50 опасность
перегрева
1004.7 1003.6 +29.0
06 24.08 Ю 4 5000 м мгла ясно +34.7 +28.1 69 +56 +66 опасность
перегрева
1005.7 1004.6
09 24.08 Ю 7 5000 м мгла 1/1 900 м
[Sc]
+34.8 +28.4 70 +57 +62 опасность
перегрева
1004.1 1003.0
12 24.08 Ю 4 5000 м мгла 3/3 900 м
[Sc]
+36.3 +27.5 61 +56 +59 опасность
перегрева
1001.3 1000.2
15 24.08 Ю 4 5000 м мгла 3/1 900 м
[Cu hum Ci fib]
+33.8 +27.7 71 +54 +54 опасность
перегрева
1001.6 1000.5 +36.8 666
18 24.08 нст 1 5000 м мгла ясно +32.6 +28.4 79 +55 +55 опасность
перегрева
1002.7 1001.6
21 24.08 С 3 5000 м дымка ясно +31.2 +28.1 84 +52 +52 опасность
перегрева
1002.2 1001.1

 

Местоположение метеостанции Бендер-Аббас (Иран): широта 27.22 долгота 56.37 высота над уровнем моря 10 м.

В архиве по умолчанию представлена погода в Бендер-Аббасе за последнюю неделю. Архивные данные за месяц целиком и за предыдущие месяцы, начиная с января 2011 года, Вы можете получить, выбрав интересующий диапазон дат из раскрывающегося списка и нажав кнопку "Ввод!".


*Определитесь, кто Вы:
робот инопланетянин человек

Внимание! Время в таблицах - всемирное. Для получения местного времени необходимо прибавить поправку, которая равна 3.5 ч.

Смотрите также архив погоды в соседних городах и на ближайших метеорологических станциях:

Погода в Эль-Хасабе (Оман) (113 км)
Погода в Эль-Хасаб аэропорту (Оман) (118 км)
Погода в Кехнудже (Иран) (155 км)
Погода в Бендер-Ленге (Иран) (169 км)
Погода в Дибе (Оман) (178 км)
Погода в Рай-эль-Хайма аэропорту (ОАЭ) (183 км)
Погода на Острове Абу-Муса (Иран) (218 км)
Погода в Бафте (Иран) (224 км)
Погода в Джаске (Иран) (225 км)
Погода в Шардже (ОАЭ) (227 км)

Пояснения к столбцам:

Ветер - указаны скорость ветра в м/с - средняя за 10 мин, порывы в срок и между сроками (в фигурных скобках) и направление, откуда дует ветер: С - северный, СВ - северо-восточный, В - восточный, ЮВ - юго-восточный, Ю - южный, ЮЗ - юго-западный, З - западный, СЗ - северо-западный.
Видимость - горизонтальная дальность видимости в метрах или километрах. При видимости от 1 до 10 км при отсутствии осадков обычно наблюдается дымка, при ухудшении видимости до 1 км и менее - туман. В сухую погоду видимость может ухудшаться дымом, пылью или мглою.
Явления - указаны атмосферные явления, наблюдавшиеся в срок или в последний час перед сроком; фигурными скобками обозначены явления, наблюдавшиеся между сроками (за 1-3 часа до срока); квадратными скобками обозначены град или гололедные отложения с указанием их диаметра в мм.
Облачность - указаны через наклонную черту общая и нижняя облачность в баллах и высота нижней границы облаков в метрах; квадратными скобками обозначены формы облаков: Ci - перистые, Cs - перисто-слоистые, Cc - перисто-кучевые, Ac - высококучевые, As - высокослоистые, Sc - слоисто-кучевые, Ns - слоисто-дождевые, Cu - кучевые, Cb - кучево-дождевые. Подробнее классификацию облаков см. в Атласе облаков (PDF).
T - Температура воздуха - температура, измеренная на высоте 2 м над землей.
Td - Температура точки росы - температура, при понижении до которой содержащийся в воздухе водяной пар достигнет насыщения.
f - Относительная влажность воздуха - влажноcть воздуха, измеренная на высоте 2 м над землей.
Te - Эффективная температура - температура, которую ощущает одетый по сезону человек в тени. Характеристика душности погоды. При расчете учитывается влияние влажности воздуха и скорости ветра на теплоощущения человека.
Tes - Эффективная температура на солнце - температура, которую ощущает человек, с поправкой на солнечный нагрев. Характеристика знойности погоды. Зависит от высоты солнца над горизонтом, облачности и скорости ветра. Ночью, в пасмурную погоду, а также при ветре 12 м/с и более поправка равна нулю.
P - Атмосферное давление - приведенное к уровню моря атмосферное давление.
Po - Атмосферное давление - измеренное на уровне метеостанции атмосферное давление.
Tmin - Минимальная температура - минимум температуры воздуха на высоте 2 м над землей.
Tmax - Максимальная температура - максимум температуры воздуха на высоте 2 м над землей.
R - Количество осадков - Количество выпавших осадков за период времени, мм. При наведении курсора мыши на число - период времени, за который выпало указанное количество осадков.
R24 - Количество осадков - Количество выпавших осадков за 24 часа, мм.
S - Снежный покров - Высота снежного покрова, см. При наведении курсора мыши на число - состояние снежного покрова и степень покрытия местности в баллах.